GFSMW_925_rhum_030.txt.gz
RH
40 49 54 59 61 62 63 65 68 73 78 71 62 58 68 75 84 84 81 78 68 68 66 63 65 55 50 49 51 43 44 40 42 41 44 45 50 46 40 41 38 40 43
38 44 49 52 56 60 65 65 66 70 72 64 55 56 62 68 82 89 86 81 74 68 68 63 59 54 54 54 48 42 38 38 46 44 42 40 42 46 46 40 42 47 44
37 40 47 50 54 54 59 59 62 65 69 62 57 69 74 82 88 89 89 85 78 69 66 65 57 58 51 46 45 43 39 41 49 53 47 40 34 35 39 49 45 46 46
33 35 45 50 52 54 55 58 57 60 66 68 60 68 63 66 76 90 84 75 78 71 63 63 60 57 42 38 39 41 47 50 53 54 49 47 37 27 28 42 46 49 45
32 35 35 42 51 53 56 62 62 63 65 71 67 67 66 62 67 80 68 72 75 70 60 59 57 50 42 41 40 50 62 63 50 47 47 44 40 40 36 34 26 32 36
32 31 34 39 42 51 56 60 65 63 64 69 76 68 65 66 75 69 70 72 74 66 61 56 55 50 43 49 60 52 66 59 56 47 40 34 37 36 36 33 30 31 35
30 33 34 36 41 46 55 60 64 60 64 68 74 76 75 74 78 75 74 70 66 63 61 58 56 50 44 56 52 57 69 63 55 46 40 47 44 38 36 36 35 35 35
28 30 32 34 38 46 53 61 62 62 62 69 75 76 80 83 83 81 73 68 67 64 64 60 64 56 43 48 59 75 71 63 54 54 55 46 46 45 44 42 40 39 32
21 25 27 33 39 45 53 61 61 64 63 68 76 78 83 84 86 87 74 71 71 69 62 62 68 62 52 50 74 72 65 62 63 61 61 54 46 50 51 48 45 42 46
27 26 28 30 35 42 49 59 62 64 63 69 77 79 83 84 94 93 84 79 73 75 75 74 59 63 49 61 79 65 64 60 65 63 56 53 48 46 48 43 42 44 44
25 32 33 34 36 42 49 57 65 67 65 64 74 80 86 94 98 98 98 92 83 76 74 64 65 80 52 79 68 64 52 66 65 60 54 51 46 44 44 45 45 46 45
26 34 36 41 43 47 50 53 57 58 59 64 71 78 98 100 99 98 98 94 86 83 72 68 84 51 65 60 62 52 60 67 76 59 54 49 45 50 50 48 48 48 45
26 34 43 44 46 51 55 57 64 62 63 72 78 84 90 97 98 99 99 96 93 84 80 86 62 59 57 54 53 65 72 87 78 54 50 50 50 51 52 51 50 46 45
33 33 42 48 52 56 61 63 68 71 72 74 76 78 86 87 90 94 96 93 93 91 83 68 58 57 55 52 67 83 85 90 68 62 59 54 52 51 53 52 50 50 49
41 44 44 49 54 60 63 64 72 75 74 71 70 74 81 83 82 82 81 80 82 78 70 60 54 64 58 86 90 98 94 84 67 62 61 58 59 60 57 52 50 52 51
44 44 43 42 45 49 52 62 66 70 69 69 69 72 77 74 74 74 76 80 75 71 58 56 57 75 97 91 91 94 99 80 70 64 58 56 57 67 68 64 57 56 56
39 42 45 48 50 55 56 58 64 67 68 69 70 72 72 72 75 73 71 72 63 60 58 78 85 90 77 79 98 98 96 98 85 70 62 57 51 53 64 71 67 63 57
41 43 45 49 52 54 58 58 60 63 64 66 68 70 71 70 70 71 75 65 63 64 77 90 82 83 89 98 99 100 99 95 68 60 55 52 52 50 55 63 66 66 67
44 47 51 53 54 55 57 58 59 61 62 64 65 67 68 69 70 73 79 86 80 85 90 88 88 94 98 99 100 100 82 70 62 58 56 54 54 54 60 65 62 63 66
48 51 54 55 56 58 58 59 62 66 69 70 71 71 73 74 78 81 86 88 88 92 98 100 100 98 98 93 87 78 76 72 66 65 60 59 66 66 67 69 66 68 65
53 55 55 57 59 61 62 63 67 69 71 72 74 76 77 84 88 93 97 96 95 91 86 84 75 72 71 71 77 77 86 80 77 72 67 64 66 70 68 70 74 76 75
55 56 58 60 60 60 62 66 71 74 76 78 82 84 86 80 75 69 62 58 58 62 64 70 69 69 72 76 83 90 96 99 97 94 88 80 78 78 76 74 71 75 78
53 57 62 65 66 66 68 69 70 68 66 61 60 60 61 61 62 62 62 58 60 64 66 64 65 60 66 65 71 80 78 74 78 88 89 99 97 94 95 89 82 73 86
52 57 59 61 63 62 62 62 60 59 60 61 61 61 60 56 54 49 46 45 51 54 51 52 55 56 61 59 77 78 75 73 76 77 79 84 74 85 99 99 92 91 88
56 56 60 63 64 64 66 65 61 57 58 57 56 56 52 42 40 40 50 51 61 70 66 66 64 74 76 78 92 93 86 87 89 95 95 80 71 67 80 92 100 100 96
56 61 64 64 64 64 63 62 60 57 53 47 48 57 52 49 40 40 42 60 58 55 70 84 91 85 90 93 95 94 93 94 89 80 74 83 86 84 72 70 88 99 100

GFSMW_925_rhum_033.txt.gz
RH
31 45 46 46 51 56 58 57 59 60 66 73 59 46 45 51 61 76 74 68 63 68 68 59 67 63 52 47 51 45 43 36 38 40 41 42 47 49 41 40 37 36 39
28 36 46 45 47 51 54 54 54 57 58 54 48 42 42 45 54 74 70 68 71 65 67 62 65 62 50 51 53 42 38 35 42 43 43 46 44 46 47 40 38 40 43
28 32 37 43 47 48 48 50 52 53 55 50 47 42 41 47 51 65 74 76 75 70 66 66 62 59 50 55 53 47 39 36 45 50 50 45 41 34 40 46 43 41 46
25 27 32 37 42 44 49 50 48 48 50 50 44 41 46 46 52 60 67 74 82 77 64 64 66 60 55 49 52 45 40 45 43 52 52 51 48 37 33 37 44 47 48
23 25 29 33 36 40 44 49 47 47 48 53 51 45 50 51 51 58 72 82 72 76 69 64 67 63 59 47 45 40 48 53 62 53 57 49 44 42 40 39 32 41 37
23 21 23 29 34 37 42 46 46 44 46 50 56 54 53 55 48 58 68 69 70 74 72 63 65 66 56 46 47 50 61 67 65 65 59 43 36 36 38 39 35 31 29
22 20 21 24 28 35 42 45 47 46 46 49 54 60 59 57 57 57 69 65 70 75 74 73 69 70 60 53 58 56 53 66 72 72 55 38 44 43 37 34 33 34 33
20 21 20 21 24 29 38 46 46 47 46 52 54 58 66 65 66 69 72 75 76 72 83 80 81 74 61 63 71 51 62 73 83 63 49 52 48 43 40 40 39 41 34
17 20 20 22 24 26 33 43 46 46 48 48 56 62 69 74 72 80 80 86 77 79 85 83 78 64 66 76 60 74 72 84 70 57 62 63 53 44 45 46 43 38 45
19 18 18 21 23 26 30 40 46 46 46 51 59 67 69 73 77 82 94 90 87 87 78 76 83 72 78 58 78 80 84 70 60 62 68 62 55 49 44 43 39 39 39
19 24 22 22 23 27 32 38 46 50 48 53 58 67 72 74 80 91 96 96 93 84 73 79 81 77 72 73 75 76 71 62 62 68 72 67 58 50 43 41 41 40 38
17 23 27 28 28 30 33 37 45 50 50 55 58 67 77 82 89 97 99 98 94 90 84 75 82 85 80 77 85 81 65 56 70 77 88 74 55 47 46 45 44 43 44
16 23 30 33 34 37 39 41 47 49 50 52 54 64 93 95 95 96 100 98 97 91 83 81 88 87 81 80 82 71 55 86 81 82 85 61 52 50 47 47 49 50 50
17 19 29 34 36 41 46 48 53 52 53 57 62 65 77 89 92 93 98 99 97 93 91 90 85 86 78 72 61 58 89 83 74 91 78 64 56 52 52 53 54 54 55
24 26 29 36 43 49 51 53 63 64 63 62 64 70 77 77 78 84 88 92 94 92 93 90 84 69 66 62 70 87 87 73 93 90 73 65 62 59 58 57 57 56 56
29 34 37 41 46 49 52 59 62 62 61 59 60 66 68 68 71 72 73 78 80 79 78 73 70 65 66 78 82 80 84 96 99 94 80 74 71 67 63 56 57 60 65
34 36 36 38 41 44 47 52 55 56 56 58 61 64 64 68 70 68 68 66 68 72 73 73 67 66 84 79 84 84 87 96 98 98 100 89 71 56 49 47 46 52 60
35 37 37 40 42 44 47 48 50 53 54 57 61 63 64 64 64 63 66 71 73 72 74 73 70 71 76 85 82 84 97 99 98 98 75 58 53 50 48 49 50 52 59
33 35 38 40 42 43 44 46 48 50 53 55 57 59 61 62 64 66 71 72 72 72 74 74 74 79 87 93 99 100 96 86 72 64 58 55 54 54 52 56 64 61 58
37 40 42 43 44 45 46 48 50 53 56 59 60 61 62 64 70 80 80 86 85 90 88 97 91 91 91 85 84 88 81 76 72 69 65 62 63 63 62 62 69 73 66
39 42 42 43 45 48 50 51 54 56 58 60 61 67 73 79 83 85 88 88 87 87 86 81 69 64 63 66 76 80 90 96 91 92 90 87 86 91 96 98 94 80 76
43 43 45 47 48 49 51 53 56 61 66 69 71 74 74 70 68 59 53 47 51 55 58 66 64 65 67 69 76 69 72 71 75 74 76 73 78 77 69 59 90 97 94
41 44 47 50 51 52 53 54 59 60 60 56 52 49 47 46 47 48 47 43 48 52 55 50 51 48 56 55 58 74 71 70 75 74 76 74 67 68 76 72 66 87 100
41 45 51 52 54 53 53 56 55 54 52 51 49 48 44 42 41 36 34 36 49 49 46 47 50 50 60 58 84 78 74 72 74 75 83 80 77 77 69 68 69 75 92
43 48 48 50 52 52 52 51 50 47 47 47 46 46 43 36 34 40 44 47 70 59 59 64 61 74 76 82 94 90 83 84 84 93 85 76 68 73 74 74 74 77 77
46 46 51 52 53 53 50 48 47 46 44 44 46 50 46 39 33 34 61 54 51 49 46 53 66 83 89 90 92 91 89 88 92 76 67 67 74 79 78 77 80 81 79

GFSMW_925_rhum_036.txt.gz
RH
47 52 55 67 68 64 62 60 60 63 62 64 66 68 51 53 54 55 66 70 67 69 67 66 60 60 58 52 50 47 40 38 36 36 38 37 42 44 42 41 40 37 40
41 47 52 56 69 68 68 74 75 70 66 72 75 65 53 49 52 59 68 66 78 66 67 68 63 65 61 52 50 51 44 40 37 46 48 67 55 50 50 42 40 38 38
39 44 48 52 56 66 66 65 69 73 72 73 62 62 47 46 48 62 60 66 72 67 67 67 66 66 62 54 53 51 43 42 42 47 54 67 67 51 50 47 40 39 41
28 38 43 48 52 56 59 56 54 56 58 57 54 51 45 44 48 65 70 66 68 74 70 67 67 64 62 58 56 53 46 40 46 49 55 53 53 59 58 49 46 43 43
28 31 37 42 47 50 55 54 51 53 54 56 56 50 44 42 43 51 60 68 76 78 80 70 65 66 63 59 56 53 49 43 52 57 57 68 72 51 53 60 46 49 47
26 27 30 34 41 46 50 53 50 50 49 51 51 52 49 46 50 53 58 68 68 71 80 74 67 68 65 65 66 74 55 60 60 60 76 81 79 48 50 59 50 45 41
26 27 28 31 34 40 47 51 53 51 49 49 53 52 53 50 52 53 60 74 78 77 79 75 66 67 71 79 84 76 62 64 67 75 86 80 62 41 46 41 42 44 36
26 26 24 29 32 36 43 47 49 50 47 48 51 57 54 56 62 58 60 68 76 74 72 73 70 69 83 88 83 59 63 58 67 84 90 79 54 51 48 42 44 62 49
24 24 23 22 29 35 40 46 46 47 46 46 49 51 60 62 64 62 68 77 77 73 71 72 74 96 93 85 64 62 67 66 85 86 78 70 59 60 52 45 46 49 71
16 20 23 23 24 28 38 45 47 45 46 46 50 55 59 63 64 68 73 88 86 78 76 75 94 92 86 78 63 69 70 84 81 78 67 65 67 66 60 50 46 46 46
22 22 22 20 21 24 27 42 47 46 45 46 50 58 60 63 65 80 86 94 91 89 87 87 85 82 81 75 74 74 74 86 81 74 78 67 72 72 64 54 45 43 42
19 23 26 24 24 24 26 39 44 45 46 47 59 60 62 72 77 84 88 89 93 92 87 78 79 82 85 88 81 69 85 87 82 81 70 72 82 83 70 59 49 44 45
16 24 29 31 29 29 30 32 39 44 47 48 56 58 72 84 90 94 96 96 96 95 93 84 83 85 94 92 74 81 80 90 86 72 70 76 89 82 74 60 51 50 50
16 19 29 34 34 36 38 40 45 47 49 50 62 82 95 95 90 94 99 99 100 99 95 90 85 88 91 88 83 88 90 87 76 65 78 85 92 76 68 61 59 56 58
17 20 30 36 39 44 46 50 54 59 61 63 72 83 83 84 89 94 94 90 91 93 93 90 89 90 87 88 86 86 78 81 70 78 82 93 83 75 71 66 64 64 67
20 23 26 38 43 48 52 61 64 63 63 63 70 72 73 74 81 90 95 93 91 91 90 89 88 88 82 76 68 72 72 68 89 86 94 95 84 81 79 78 71 66 66
27 32 38 45 48 53 59 61 61 59 59 62 66 66 66 71 73 73 74 75 77 77 78 77 75 73 69 69 67 72 83 89 86 92 98 98 96 87 78 69 58 53 52
33 38 40 42 46 49 51 54 54 57 58 59 62 64 67 66 64 64 68 72 73 74 74 75 75 76 74 72 74 81 86 90 96 91 82 88 83 64 60 62 61 61 60
37 38 40 42 44 47 47 48 49 52 55 57 59 61 63 64 66 69 70 72 73 72 72 71 70 71 84 85 88 96 99 92 85 76 72 73 76 82 84 85 94 95 87
34 36 39 41 42 43 44 46 48 50 53 56 59 60 62 66 73 78 78 74 74 76 73 79 80 82 87 94 95 87 83 85 86 80 76 70 66 71 72 79 88 87 89
35 38 39 41 43 44 46 49 52 55 57 58 59 63 74 82 80 81 83 84 86 85 79 78 75 70 76 78 78 76 73 74 70 73 73 73 76 77 64 45 60 64 62
37 39 41 43 45 47 49 52 54 56 61 69 72 76 77 77 80 79 74 67 62 64 64 66 66 70 71 65 64 65 68 64 60 70 76 80 80 69 64 76 80 81 79
38 39 44 46 47 48 50 53 59 64 66 69 68 63 55 50 48 48 45 47 57 55 58 49 52 54 57 69 76 72 56 40 67 77 82 62 41 66 76 83 74 76 86
38 41 46 48 49 49 51 57 59 60 56 51 49 47 44 41 39 36 37 51 54 50 47 52 54 59 69 70 73 58 43 67 80 82 64 64 77 77 71 73 75 76 80
39 43 48 50 51 51 55 54 53 51 51 49 46 46 39 35 39 43 50 58 42 47 61 68 71 82 83 94 87 85 85 86 88 85 85 82 75 76 77 77 77 79 81
42 47 50 51 51 52 50 49 47 48 46 47 51 46 37 33 37 50 48 48 49 49 42 38 44 62 82 76 69 86 88 86 87 86 80 74 75 78 80 79 83 83 84

GFSMW_925_rhum_042.txt.gz
RH
85 92 97 95 98 97 96 88 87 86 79 77 77 79 62 45 44 41 36 43 52 57 59 60 58 61 58 54 51 51 46 46 43 38 41 39 38 39 39 41 41 42 40
89 90 97 92 94 96 97 94 91 80 79 79 81 76 62 55 48 44 42 50 55 54 65 66 65 62 60 55 55 54 49 46 43 40 49 66 55 45 44 40 39 40 42
88 83 90 90 90 93 93 96 93 86 79 80 79 74 69 60 56 46 48 54 54 65 65 67 66 64 65 58 57 55 49 47 42 38 42 81 80 64 52 48 45 43 41
76 77 79 86 85 85 84 83 86 85 84 78 69 66 65 65 65 66 61 49 51 59 64 67 68 68 66 60 59 57 53 50 45 46 48 49 54 69 67 52 50 52 45
71 76 77 79 79 73 74 75 79 75 72 72 65 62 60 58 61 67 54 48 48 50 65 69 64 69 70 64 64 64 60 52 48 63 58 56 59 58 71 79 58 52 52
65 67 72 75 73 68 64 63 63 63 70 68 68 63 62 69 76 72 62 57 46 53 60 67 61 67 76 73 72 70 61 52 53 66 48 56 68 80 80 83 72 64 61
62 63 69 74 69 67 66 65 64 65 70 74 69 64 69 71 75 70 66 65 63 55 58 66 70 71 77 77 74 75 62 57 62 62 61 65 64 70 77 78 76 68 56
55 58 60 68 71 66 66 68 67 70 70 74 72 68 72 77 76 69 64 66 59 55 58 69 75 75 78 80 77 74 64 62 70 67 77 74 72 80 81 77 72 70 60
44 52 54 58 64 70 68 67 68 71 69 69 69 70 73 76 78 73 65 62 51 47 66 66 64 76 88 92 82 75 67 70 73 78 78 75 80 82 90 84 65 64 79
38 41 48 52 55 60 67 69 68 67 67 69 72 72 72 73 75 75 67 65 61 77 85 88 72 73 88 92 76 77 77 84 87 83 79 77 74 87 87 82 86 79 76
40 39 40 44 48 52 58 66 69 67 67 67 66 67 67 69 72 80 80 80 87 85 78 87 90 88 95 94 90 89 90 92 93 85 79 79 89 90 87 85 82 80 80
31 35 40 39 42 44 48 56 63 67 67 67 67 69 72 74 83 83 86 91 93 89 78 100 98 97 91 88 91 94 95 96 94 80 83 90 90 85 83 83 79 86 80
34 38 43 43 44 42 40 44 54 60 64 66 67 70 66 75 78 82 94 91 98 88 88 88 100 95 91 93 95 95 93 91 81 81 89 91 86 88 85 79 89 87 80
36 39 43 45 44 42 44 43 50 55 62 70 70 67 67 74 81 89 89 85 94 100 99 100 96 94 95 95 93 89 87 88 84 86 91 91 89 81 77 84 88 88 85
25 43 45 49 59 64 65 55 49 57 63 75 76 60 65 78 99 100 100 99 99 100 97 96 94 93 90 89 86 89 93 88 88 94 95 88 82 82 75 92 96 99 100
25 35 46 52 69 77 78 76 70 74 78 84 92 95 100 100 100 100 98 100 100 100 99 100 94 93 93 91 94 93 88 86 92 93 90 82 80 84 93 87 100 92 84
28 30 48 56 68 76 76 84 87 94 100 100 100 100 100 100 100 100 100 100 100 98 97 99 99 98 97 97 93 91 92 96 92 88 89 90 92 95 91 93 82 77 71
31 45 53 69 74 77 79 83 88 92 95 99 100 100 100 100 100 99 93 88 85 81 89 95 96 94 89 92 94 95 94 90 92 92 91 88 86 81 79 75 63 41 22
40 52 59 73 78 76 76 78 81 83 87 91 93 94 97 99 99 93 90 86 82 81 81 83 84 81 84 87 88 88 86 93 96 92 80 77 75 65 55 40 36 46 57
65 74 71 73 74 72 71 74 79 81 83 81 81 81 80 80 81 81 80 78 74 76 78 78 77 81 92 93 88 79 80 95 86 78 70 58 40 33 34 56 79 89 88
64 65 69 71 70 68 68 74 74 77 75 74 73 71 69 68 69 69 68 70 72 78 84 91 96 96 98 100 99 94 87 78 68 57 40 30 34 31 52 92 87 88 83
64 62 66 66 64 65 65 72 74 73 71 70 70 70 70 71 71 72 79 79 82 92 97 98 100 97 93 86 80 70 65 59 45 33 36 35 44 71 86 83 83 81 66
58 58 62 66 63 62 63 73 80 74 73 74 80 79 79 80 80 81 83 84 83 86 100 96 95 92 87 80 71 63 56 32 21 36 42 57 72 81 79 78 83 78 85
60 59 62 67 70 64 67 71 77 76 78 85 84 82 84 88 87 86 86 81 81 85 97 98 100 92 86 78 68 46 29 34 44 53 63 72 75 76 74 76 84 90 89
60 59 64 70 75 72 76 77 76 74 79 81 79 76 75 75 72 71 73 66 67 69 82 87 86 86 86 79 54 48 58 70 72 73 78 76 76 77 85 88 91 92 93
67 70 72 75 77 75 75 74 73 72 70 63 61 60 63 59 49 41 40 38 40 49 58 62 58 52 58 55 61 57 79 87 83 75 76 78 76 76 91 95 96 95 95

GFSMW_925_rhum_045.txt.gz
RH
93 93 84 94 100 100 100 100 100 96 95 90 77 76 77 60 57 55 58 61 63 65 68 66 63 62 62 59 58 59 54 46 44 43 43 41 40 39 39 41 41 40 40
98 97 97 94 100 100 98 97 98 97 88 74 71 76 68 57 50 44 36 46 49 52 60 62 61 62 63 62 59 56 50 51 49 44 48 60 50 44 44 44 43 42 39
95 96 95 97 99 100 99 96 94 95 89 84 84 78 75 62 49 45 44 46 43 43 53 59 61 63 64 64 58 53 50 52 52 44 43 82 73 64 52 50 46 44 46
82 89 94 98 100 97 95 93 91 90 88 84 80 78 71 65 60 49 42 39 41 42 53 63 64 68 69 66 62 56 56 54 48 47 43 46 47 69 64 52 52 48 45
74 85 87 92 94 94 93 94 92 86 79 79 79 77 73 68 58 54 52 51 45 43 52 57 68 70 72 70 68 64 63 61 52 46 49 54 58 56 67 77 62 56 53
71 71 76 83 90 90 91 89 92 92 86 82 77 76 74 70 68 63 61 58 49 46 51 52 56 61 69 71 71 72 68 68 62 53 49 52 63 70 68 83 73 61 56
69 72 75 80 84 86 85 85 86 87 84 83 80 76 71 68 65 66 64 63 57 57 52 52 55 59 66 79 77 78 80 75 73 62 53 52 59 55 66 71 81 78 70
64 70 71 73 77 80 77 77 76 77 77 78 77 76 75 69 66 64 70 66 60 58 54 55 54 54 71 88 92 94 95 85 80 66 57 58 61 59 71 76 80 84 70
63 65 66 70 73 72 71 69 67 67 68 70 73 70 70 70 68 68 70 72 65 68 68 70 72 78 80 72 88 93 82 96 85 68 64 67 67 77 80 85 82 66 83
55 60 62 64 71 70 66 66 62 61 60 62 64 75 75 70 67 71 77 78 76 72 68 75 92 89 83 96 100 100 97 99 88 75 76 79 83 89 88 85 87 77 81
48 51 58 58 64 69 67 66 65 62 62 63 67 70 73 74 76 76 77 81 81 78 78 89 91 87 96 100 100 100 100 98 89 83 86 94 93 92 92 88 85 88 91
44 43 46 53 57 62 68 71 69 67 67 71 73 74 74 74 76 73 80 84 83 81 98 93 93 70 90 96 100 100 97 90 88 92 99 96 95 90 90 90 88 87 86
38 43 47 49 52 56 60 66 73 73 71 73 77 81 82 82 79 72 90 90 92 97 95 80 95 93 69 99 100 100 98 96 99 100 100 95 91 90 89 90 86 86 88
37 42 41 46 44 49 54 57 64 70 73 76 78 81 84 83 82 84 93 96 98 100 95 78 76 97 95 100 100 98 99 100 100 99 93 87 88 90 90 88 87 86 87
32 41 48 49 51 50 50 49 51 59 68 74 79 80 83 86 89 97 90 100 100 100 100 97 90 97 99 100 100 100 98 97 95 90 89 90 93 90 85 83 84 83 91
27 31 44 50 56 56 56 58 53 50 57 70 79 84 90 93 94 98 100 100 100 100 100 100 100 100 100 98 99 94 91 92 93 92 97 97 98 95 91 90 92 83 85
28 28 42 44 52 61 57 62 63 62 64 76 84 84 82 90 99 100 100 100 100 100 100 100 100 100 99 98 94 94 94 95 93 96 99 96 96 96 91 89 82 79 70
30 30 28 55 56 68 74 78 86 87 88 96 100 100 100 100 100 100 100 100 100 100 100 100 100 98 98 99 100 98 93 92 99 99 96 94 89 80 74 74 75 61 34
29 28 28 48 76 75 83 88 98 100 100 100 100 100 100 100 100 100 100 100 100 96 92 92 97 100 100 100 100 100 100 100 100 96 91 82 74 73 75 67 37 31 48
38 58 70 79 86 87 85 93 98 100 100 100 100 100 100 99 100 100 97 92 88 89 89 97 99 95 100 100 100 96 95 94 92 84 74 62 69 62 33 35 59 76 82
71 77 82 84 84 84 85 92 94 96 96 98 99 100 100 100 98 94 91 88 86 88 94 98 100 100 100 100 95 90 85 86 82 70 62 47 27 26 47 75 85 86 85
81 80 85 85 83 82 83 88 90 89 89 90 91 92 94 96 93 89 86 84 89 99 100 100 100 100 100 100 99 94 84 78 63 51 36 25 34 58 79 86 84 85 68
79 77 80 80 78 78 79 86 92 84 83 83 84 83 81 82 81 82 89 94 98 100 100 100 100 97 92 88 79 74 64 52 34 28 31 51 67 78 80 74 81 78 78
74 73 75 78 80 74 76 83 86 83 83 90 94 93 90 93 91 92 94 96 100 100 100 100 100 95 81 72 62 51 36 27 31 43 59 72 73 72 70 68 79 86 86
69 70 76 81 88 82 86 86 85 82 90 90 92 91 91 91 92 91 92 92 97 97 96 97 92 87 87 78 58 46 48 60 72 80 78 72 70 69 74 87 87 91 93
75 80 84 86 88 86 88 89 86 80 83 86 86 83 79 77 75 71 71 68 78 86 90 90 84 84 79 78 82 76 88 88 79 76 76 76 76 76 93 97 96 97 96